Regional Weather Roundup
Issued by NWS

Home | Current Version | Previous Version | Text Only | Print | Product List | Glossary Off
Versions: 1 2 3 4 5 6 7 8 9 10 11 12 13 14 15 16 17 18 19 20 21 22 23 24 25 26 27 28 29 30 31 32 33 34 35 36 37 38 39 40 41 42 43 44 45 46 47 48 49 50

000
ASUS45 KCYS 250510
RWRWY

WYOMING REGIONAL WEATHER ROUNDUP
NATIONAL WEATHER SERVICE CHEYENNE WY
1100 PM MDT THU JUL 24 2014

NOTE:  "FAIR" INDICATES FEW OR NO CLOUDS BELOW 12,000 FEET
WITH NO SIGNIFICANT WEATHER AND/OR OBSTRUCTIONS TO VISIBILITY.

WYZ001-250600-
YELLOWSTONE NATIONAL PARK

CITY           SKY/WX    TMP DP  RH WIND       PRES   REMARKS
LK YELLOWSTONE   N/A     49  20  31 CALM      30.28R
W YELLOWSTONE  NOT AVBL

$$
WYZ002>013-054>058-071-098>099-250600-
NORTHERN WYOMING

CITY           SKY/WX    TMP DP  RH WIND       PRES   REMARKS
JACKSON        CLEAR     57  18  21 E5        30.18S
CODY           NOT AVBL
GREYBULL       CLEAR     79  44  28 NW10      29.88R
WORLAND        CLEAR     70  28  21 N6        29.92R
SHERIDAN       CLEAR     69  49  48 W10       29.97R
BUFFALO        CLEAR     70  48  45 NW17G24   30.01R
GILLETTE       CLEAR     69  52  54 N25G37    29.96R
HULETT         FAIR      64  55  72 MISG      29.95
NEWCASTLE      FAIR      79  46  31 N8        29.82

$$
WYZ014>020-022>026-101>103-250600-
CENTRAL WYOMING

CITY           SKY/WX    TMP DP  RH WIND       PRES   REMARKS
BIG PINEY      CLEAR     57  20  23 NW5       30.23S
PINEDALE       CLEAR     55  34  44 CALM      30.25S
DUBOIS         FAIR      61  23  23 W13       30.19F
LANDER         CLEAR     75  26  16 VRB6      30.03R
RIVERTON       CLEAR     72  18  13 N9        30.05R
CASPER         CLEAR     77  26  15 W13       29.99R
DOUGLAS        PTCLDY    69  45  41 NW7       29.95R

$$
WYZ021-027>030-104>119-250600-
SOUTHERN WYOMING

CITY           SKY/WX    TMP DP  RH WIND       PRES   REMARKS
EVANSTON       PTCLDY    67  34  29 NE6       30.22R
KEMMERER       CLEAR     61  32  33 NW12      30.23S
FORT BRIDGER   FAIR      69  32  25 NW5       30.24S
ROCK SPRINGS   CLEAR     73  28  18 CALM      30.19R
DIXON          FAIR      76  44  31 S13G24    30.20R
RAWLINS        PTCLDY    72  38  29 SW8       30.18R
SARATOGA       MOCLDY    72  41  33 SW9       30.22S
LARAMIE        PTCLDY    62  48  60 S5        30.21S
CHEYENNE       PTCLDY    73  51  46 SW14G29   30.13R
TORRINGTON     CLEAR     74  54  49 SE7       29.88R
PINE BLUFFS    FAIR      70  52  52 S13G18    30.05R

$$


USA.gov is the U.S. government's official web portal to all federal, state and local government web resources and services.